TimeEDT,TemperatureF,Dew PointF,Humidity,Sea Level PressureIn,VisibilityMPH,Wind Direction,Wind SpeedMPH,Gust SpeedMPH,PrecipitationIn,Events,Conditions,WindDirDegrees,DateUTC
12:15 AM,42.8,41.0,93,30.03,10.0,NNE,11.5,-,N/A,,Overcast,20,2012-10-28 04:15:00
12:35 AM,42.8,41.0,93,30.03,10.0,NNE,10.4,16.1,N/A,,Overcast,20,2012-10-28 04:35:00
12:55 AM,42.8,41.0,93,30.03,7.0,North,8.1,-,N/A,,Overcast,10,2012-10-28 04:55:00
1:15 AM,42.8,41.0,93,30.03,5.0,North,9.2,-,N/A,,Overcast,10,2012-10-28 05:15:00
1:55 AM,42.8,39.2,87,30.02,7.0,North,8.1,-,N/A,,Overcast,10,2012-10-28 05:55:00
2:15 AM,42.8,39.2,87,30.02,2.5,North,9.2,-,N/A,,Overcast,10,2012-10-28 06:15:00
2:35 AM,42.8,39.2,87,30.02,3.0,NNE,8.1,-,0.01,,Overcast,20,2012-10-28 06:35:00
2:55 AM,42.8,39.2,87,30.02,3.0,North,5.8,-,0.01,,Overcast,10,2012-10-28 06:55:00
3:15 AM,42.8,39.2,87,30.01,3.0,North,8.1,-,N/A,,Overcast,10,2012-10-28 07:15:00
3:35 AM,42.8,39.2,87,30.01,7.0,NNE,8.1,-,N/A,,Overcast,20,2012-10-28 07:35:00
3:55 AM,42.8,39.2,87,30.01,2.5,North,8.1,-,0.02,,Overcast,10,2012-10-28 07:55:00
4:15 AM,41.0,39.2,93,30.00,4.0,North,10.4,-,0.01,,Overcast,10,2012-10-28 08:15:00
4:35 AM,41.0,39.2,93,30.00,4.0,North,6.9,-,0.01,,Overcast,360,2012-10-28 08:35:00
4:55 AM,41.0,39.2,93,30.00,5.0,North,10.4,-,0.02,,Overcast,10,2012-10-28 08:55:00
5:15 AM,41.0,39.2,93,30.00,5.0,North,9.2,-,0.04,,Overcast,10,2012-10-28 09:15:00
5:35 AM,41.0,39.2,93,30.00,5.0,North,11.5,17.3,0.06,,Overcast,10,2012-10-28 09:35:00
5:55 AM,41.0,39.2,93,30.00,8.0,NNE,9.2,-,0.08,,Overcast,20,2012-10-28 09:55:00
6:15 AM,41.0,39.2,93,29.99,7.0,NNE,10.4,16.1,0.02,,Overcast,20,2012-10-28 10:15:00
6:35 AM,41.0,37.4,87,29.99,5.0,NNE,15.0,21.9,0.03,,Overcast,20,2012-10-28 10:35:00
6:55 AM,39.2,37.4,93,29.99,5.0,North,11.5,19.6,0.05,,Overcast,10,2012-10-28 10:55:00
7:15 AM,39.2,37.4,93,29.98,4.0,NNE,11.5,-,0.01,,Overcast,20,2012-10-28 11:15:00
7:35 AM,39.2,37.4,93,29.99,7.0,NNE,12.7,17.3,0.03,,Overcast,30,2012-10-28 11:35:00
7:55 AM,39.2,37.4,93,29.98,8.0,NNE,13.8,-,0.06,,Overcast,20,2012-10-28 11:55:00
8:15 AM,39.2,37.4,93,29.99,2.5,NNE,10.4,16.1,0.01,,Overcast,20,2012-10-28 12:15:00
8:35 AM,39.2,37.4,93,29.99,2.5,NNE,12.7,18.4,0.04,,Overcast,30,2012-10-28 12:35:00
8:55 AM,39.2,37.4,93,29.99,3.0,NNE,16.1,-,0.05,,Overcast,30,2012-10-28 12:55:00
9:15 AM,39.2,37.4,93,29.99,10.0,NNE,17.3,23.0,N/A,,Overcast,30,2012-10-28 13:15:00
9:35 AM,39.2,37.4,93,29.99,4.0,NNE,17.3,24.2,N/A,,Overcast,30,2012-10-28 13:35:00
9:55 AM,39.2,37.4,93,29.98,2.0,NNE,13.8,20.7,0.01,,Overcast,20,2012-10-28 13:55:00
10:15 AM,39.2,37.4,93,29.98,2.5,NNE,11.5,-,N/A,,Overcast,30,2012-10-28 14:15:00
10:55 AM,39.2,37.4,93,29.97,6.0,NNE,13.8,-,0.02,,Overcast,30,2012-10-28 14:55:00
11:15 AM,39.2,37.4,93,29.97,10.0,NNE,12.7,-,N/A,,Overcast,30,2012-10-28 15:15:00
11:35 AM,39.2,37.4,93,29.97,10.0,NNE,10.4,-,N/A,,Overcast,30,2012-10-28 15:35:00
11:55 AM,39.2,37.4,93,29.97,10.0,NNE,12.7,16.1,N/A,,Overcast,20,2012-10-28 15:55:00
12:15 PM,39.2,37.4,93,29.97,10.0,NNE,8.1,-,N/A,,Overcast,20,2012-10-28 16:15:00
12:35 PM,39.2,37.4,93,29.95,10.0,NNE,11.5,-,N/A,,Overcast,20,2012-10-28 16:35:00
12:55 PM,39.2,37.4,93,29.95,10.0,NNE,11.5,-,N/A,,Overcast,20,2012-10-28 16:55:00
1:15 PM,39.2,37.4,93,29.94,10.0,NNE,12.7,-,N/A,,Overcast,30,2012-10-28 17:15:00
1:35 PM,41.0,37.4,87,29.93,10.0,NNE,16.1,-,N/A,,Overcast,30,2012-10-28 17:35:00
1:55 PM,41.0,37.4,87,29.93,10.0,NNE,18.4,23.0,N/A,,Overcast,20,2012-10-28 17:55:00
2:15 PM,41.0,37.4,87,29.92,7.0,NNE,12.7,21.9,0.01,,Overcast,20,2012-10-28 18:15:00
2:35 PM,41.0,39.2,93,29.92,6.0,NNE,10.4,-,0.02,,Overcast,20,2012-10-28 18:35:00
2:55 PM,41.0,37.4,87,29.91,8.0,North,11.5,-,0.03,,Overcast,10,2012-10-28 18:55:00
3:15 PM,39.2,37.4,93,29.91,8.0,North,10.4,-,N/A,,Overcast,10,2012-10-28 19:15:00
3:35 PM,39.2,37.4,93,29.90,4.0,North,9.2,16.1,0.01,,Overcast,10,2012-10-28 19:35:00
3:55 PM,39.2,39.2,100,29.89,3.0,NNE,11.5,16.1,0.02,,Overcast,20,2012-10-28 19:55:00
4:15 PM,39.2,37.4,93,29.90,4.0,NNE,12.7,17.3,0.01,,Overcast,20,2012-10-28 20:15:00
4:35 PM,39.2,37.4,93,29.90,5.0,NNE,16.1,19.6,0.03,,Overcast,20,2012-10-28 20:35:00
4:55 PM,39.2,37.4,93,29.89,3.0,North,13.8,-,0.05,,Overcast,10,2012-10-28 20:55:00
5:15 PM,39.2,37.4,93,29.90,6.0,NNE,11.5,17.3,0.01,,Overcast,20,2012-10-28 21:15:00
5:35 PM,39.2,37.4,93,29.89,5.0,NNE,12.7,18.4,0.01,,Overcast,20,2012-10-28 21:35:00
5:55 PM,39.2,37.4,93,29.89,10.0,North,13.8,-,0.01,,Overcast,10,2012-10-28 21:55:00
6:15 PM,39.2,37.4,93,29.88,10.0,NNE,12.7,20.7,N/A,,Overcast,20,2012-10-28 22:15:00
6:35 PM,39.2,37.4,93,29.88,10.0,North,11.5,19.6,N/A,,Overcast,10,2012-10-28 22:35:00
6:55 PM,39.2,37.4,93,29.89,10.0,NNE,11.5,20.7,N/A,,Overcast,20,2012-10-28 22:55:00
7:15 PM,39.2,37.4,93,29.90,10.0,NNE,11.5,20.7,N/A,,Overcast,20,2012-10-28 23:15:00
7:35 PM,39.2,37.4,93,29.90,10.0,NNE,16.1,21.9,N/A,,Overcast,30,2012-10-28 23:35:00
7:55 PM,39.2,37.4,93,29.89,10.0,NNE,16.1,23.0,N/A,,Overcast,20,2012-10-28 23:55:00
8:15 PM,39.2,37.4,93,29.89,10.0,NNE,11.5,19.6,N/A,,Overcast,20,2012-10-29 00:15:00
8:35 PM,39.2,37.4,93,29.88,10.0,NNE,15.0,21.9,N/A,,Overcast,30,2012-10-29 00:35:00
8:55 PM,39.2,37.4,93,29.89,10.0,NNE,11.5,18.4,N/A,,Overcast,20,2012-10-29 00:55:00
9:35 PM,39.2,37.4,93,29.89,10.0,NNE,9.2,-,N/A,,Overcast,20,2012-10-29 01:35:00
9:55 PM,39.2,37.4,93,29.88,10.0,North,9.2,-,N/A,,Overcast,10,2012-10-29 01:55:00
10:15 PM,39.2,37.4,93,29.88,10.0,North,8.1,16.1,N/A,,Overcast,10,2012-10-29 02:15:00
10:35 PM,39.2,37.4,93,29.88,10.0,North,9.2,16.1,N/A,,Overcast,10,2012-10-29 02:35:00
10:55 PM,39.2,37.4,93,29.87,10.0,North,9.2,-,N/A,,Overcast,360,2012-10-29 02:55:00
11:35 PM,39.2,37.4,93,29.86,10.0,North,8.1,-,N/A,,Overcast,360,2012-10-29 03:35:00
11:55 PM,39.2,37.4,93,29.85,10.0,North,10.4,-,N/A,,Overcast,10,2012-10-29 03:55:00